Retour au catalogue

STARLINK-37197

ActifCommunicationsSSO
NORAD 68389·PAYLOAD·🇺🇸 United States

Lancé Mar 26, 2026 depuis Vandenberg Space Force Base

Loading…

Prochains Passages (prochaines 24 heures)

TLE

FraisSource: CelesTrak SupGP

Époque: Sep 15, 2026, 02:59 UTC

1 68389C 26063K   26258.12479167 -.00019793  00000+0 -61454-3 0  2582
2 68389  97.2851  39.1283 0001013  84.2539 114.2502 15.33444363    12

Suivez STARLINK-37197 en temps réel avec AllMySat

Download on the App Store